Hourly Data Report for September 13, 2017

All times are specified in Local Standard Time (LST). Add 1 hour to adjust for Daylight Saving Time where and when it is observed.

EUREKA CLIMATE
NUNAVUT

79°59'21.000" N
85°56'02.000" W
10.00 m
2401199
71613
NEK

Download Data

Hourly Data (September 2017)
Hourly Data Report for September 13, 2017
Temp Definition
°C
Dew Point Temp Definition
°C
Rel Hum Definition
%
Wind Dir Definition
10's deg

Wind Spd Definition
km/h
Visibility Definition
km
Stn Press Definition
kPa
Hmdx Definition


Wind Chill Definition


Weather Definition


TIME
00:00 -5.0 -6.2 91 13 15   101.65   -11 LegendNANA
01:00 -6.9 -7.8 93 13 10   101.70   -12 LegendNANA
02:00 -7.2 -7.9 95 12 12   101.76   -13 LegendNANA
03:00 -8.3 -9.0 95 13 4   101.80   -10 LegendNANA
04:00 -8.6 -9.2 95 11 9   101.84   -13 LegendNANA
05:00 -8.8 -9.5 95 10 8   101.87   -13 LegendNANA
06:00 -8.4 -9.5 92 6 9   101.88   -13 LegendNANA
07:00 -6.7 -7.7 93 9 10   101.89   -11 LegendNANA
08:00 -5.8 -7.6 87 11 7   101.90   -9 LegendNANA
09:00 -5.4 -7.1 88 11 8   101.90   -9 LegendNANA
10:00 -5.2 -7.3 86 14 12   101.90   -10 LegendNANA
11:00 -5.4 -7.5 85 14 11   101.89   -10 LegendNANA
12:00 -5.3 -7.4 85 14 11   101.90   -10 LegendNANA
13:00 -5.5 -7.3 87 18 9   101.90   -10 LegendNANA
14:00 -5.4 -7.3 87 20 7   101.90   -9 LegendNANA
15:00 -5.2 -6.8 88 17 8   101.93   -9 LegendNANA
16:00 -5.3 -7.0 88 16 10   101.92   -10 LegendNANA
17:00 -5.5 -7.1 89 13 10   101.93   -10 LegendNANA
18:00 -5.8 -7.5 88 13 8   101.92   -10 LegendNANA
19:00 -6.0 -7.3 91 18 3   101.93   -7 LegendNANA
20:00 -6.0 -7.3 91 17 6   101.92   -9 LegendNANA
21:00 -6.0 -7.4 90 15 7   101.91   -9 LegendNANA
22:00 -6.2 -7.3 92 18 8   101.90   -10 LegendNANA
23:00 -6.2 -7.2 93 19 10   101.89   -11 LegendNANA

Notes on Data Quality.

Legend

  • E = Estimated
  • M = Missing
  • NA = Not Available
  • ‡ = Partner data that is not subject to review by the National Climate Archives
Date modified: